Notices

What's New in latest Release from April 7th, 2021:

- Updated Glossary, including Speed of Maximum Gust, and Total Hourly Precipitation

- Updated national and regional climate services offices contacts and prices information

- Addition of station inventory lists for 1981-2010, 1971-2000, and 1961-1990 Normals.

If you haven't already, please take our survey and provide feedback about our website: https://eccc.sondage-survey.ca/f/LanguageSelection.aspx?s=442ca660-fcf1-47c0-95a9-59707d6fd709

Hourly Data Report for August 12, 2016

TORONTO CITY
ONTARIO

43°40'00.000" N
79°24'00.000" W
112.50 m
6158355
71508
XTO

Download Data

Hourly Data (August 2016)
Hourly Data Report for August 12, 2016
TIME
LST
Temp Definition
°C
Dew Point Definition
°C
Rel Hum Definition
%
Precip. Amount Definition
mm

Wind Dir Definition
10's deg

Wind Spd Definition
km/h
Visibility Definition
km
Stn Press Definition
kPa
Hmdx Definition


Wind Chill Definition


Weather Definition


00:00 26.1 22.9 83 0.0 LegendMM LegendMM   99.73 36   LegendNANA
01:00 25.7 22.4 82 0.0 LegendMM LegendMM   99.69 35   LegendNANA
02:00 25.3 22.1 82 0.0 LegendMM LegendMM   99.67 35   LegendNANA
03:00 25.5 22.2 82 0.0 LegendMM LegendMM   99.63 35   LegendNANA
04:00 25.7 22.5 82 0.0 LegendMM LegendMM   99.59 35   LegendNANA
05:00 25.6 22.5 83 0.0 LegendMM LegendMM   99.60 35   LegendNANA
06:00 25.4 22.7 85 0.0 LegendMM LegendMM   99.61 35   LegendNANA
07:00 25.9 23.0 84 0.0 LegendMM LegendMM   99.60 36   LegendNANA
08:00 27.8 23.4 77 0.0 LegendMM LegendMM   99.60 38   LegendNANA
09:00 30.0 22.3 63 0.0 LegendMM LegendMM   99.57 40   LegendNANA
10:00 30.2 21.3 59 0.0 LegendMM LegendMM   99.59 39   LegendNANA
11:00 31.1 20.9 55 0.0 LegendMM LegendMM   99.58 39   LegendNANA
12:00 32.3 20.8 51 0.0 LegendMM LegendMM   99.53 41   LegendNANA
13:00 30.4 22.3 62 0.0 LegendMM LegendMM   99.49 40   LegendNANA
14:00 32.7 21.9 53 0.0 LegendMM LegendMM   99.46 42   LegendNANA
15:00 31.3 22.3 59 0.0 LegendMM LegendMM   99.45 41   LegendNANA
16:00 30.7 23.1 64 0.0 LegendMM LegendMM   99.46 41   LegendNANA
17:00
18:00 29.8 21.8 62 0.0 LegendMM LegendMM   99.52 39   LegendNANA
19:00 31.7 18.2 45 0.0 LegendMM LegendMM   99.51 38   LegendNANA
20:00 29.2 20.3 59 0.0 LegendMM LegendMM   99.62 37   LegendNANA
21:00 28.3 20.3 62 0.0 LegendMM LegendMM   99.72 36   LegendNANA
22:00 27.5 20.0 64 0.0 LegendMM LegendMM   99.73 35   LegendNANA
23:00 27.1 20.1 66 0.0 LegendMM LegendMM   99.74 35   LegendNANA

Notes on Data Quality.

Legend

  • E = Estimated
  • M = Missing
  • NA = Not Available*
  • [empty] = Indicates an unobserved value
Date modified: